User: anonymous   Login
Location: Unspecified
(0.0000°N, 0.0000°E)
Time: 20:22:01
(UTC+00:00)
Language:

TBA - TO BE ASSIGNED - Orbit

View from above orbital plane
View from above orbital plane
View from above satellite
View from above satellite

Ground track
Ground track

The orbit is defined by the following mean orbital elements,

1 69019U          26145.64612529 +.00000000 +00000-0 +12429-3 0 00002
2 69019  97.4064  43.8731 0006747 101.3530 258.8464 15.20371386    03
Epoch (UTC): 25 May 2026 15:30:25
Eccentricity: 0.0006747
inclination: 97.4064°
perigee height: 500 km
apogee height: 509 km
right ascension of ascending node: 43.8731°
argument of perigee: 101.3530°
revolutions per day: 15.20371386
mean anomaly at epoch: 258.8464°

The dashed part of the orbit path shows where the satellite is in the earth's shadow,  

DLR